Regional Weather Roundup
Issued by NWS Charleston, SC

Current Version | Previous Version | Graphics & Text | Print | Product List | Glossary On
Versions: 1 2 3 4 5 6 7 8 9 10 11 12 13 14 15 16 17 18 19 20 21 22 23 24 25 26 27 28 29 30 31 32 33 34 35 36 37 38 39 40 41 42 43 44 45 46 47 48 49 50
000
ASUS42 KCHS 051612
RWRCHS

REGIONAL WEATHER ROUNDUP
NATIONAL WEATHER SERVICE CHARLESTON SC
1200 PM EDT TUE MAY 05 2015

NOTE: "FAIR" INDICATES FEW OR NO CLOUDS BELOW 12,000 FEET WITH NO
SIGNIFICANT WEATHER AND/OR OBSTRUCTIONS TO VISIBILITY.

NOT ALL STATIONS ARE QUALITY CONTROLLED BY THE NATIONAL
WEATHER SERVICE. USE DATA WITH CAUTION...ESPECIALLY
DEWPOINT OBSERVATIONS.

SCZ027-030-031-034>040-042>050-051700-
...SOUTHEAST SOUTH CAROLINA...

CITY           SKY/WX    TMP DP  RH WIND       PRES   REMARKS
N CHARLESTON   PTSUNNY   76  55  48 E12       30.33F
WATERFRONT PRK   N/A     73 N/A N/A E13         N/A
MOUNT PLEASANT FAIR      75  57  53 MISG      30.34S
PINOPOLIS      NOT AVBL
MONCKS CORNER  FAIR      79  54  41 E7        30.34S
SUMMERVILLE    FAIR      77  55  47 NE8       30.34F
BEAUFORT MCAS  MOSUNNY   76  58  53 E9        30.32S
BEAUFORT ARPT  FAIR      75  61  60 E13       30.32S
HILTON HEAD IS MOSUNNY   73  61  64 NE9       30.34R
WALTERBORO     MOSUNNY   75  55  50 NE5G16    30.33F
ALLENDALE      FAIR      77  55  47 VRB5      30.32S

...SOUTHERN MIDLANDS AND PEE DEE...

CITY           SKY/WX    TMP DP  RH WIND       PRES   REMARKS
GEORGETOWN     NOT AVBL
KINGSTREE      NOT AVBL
ORANGEBURG     SUNNY     76  50  40 NE7       30.34F
BARNWELL       FAIR      77  54  44 E8        30.34S
AIKEN          FAIR      73  48  40 CALM      30.37F
MANNING        FAIR      75  46  35 CALM      30.34F
COLUMBIA       SUNNY     76  51  41 VRB3      30.34F
SUMTER         SUNNY     76  52  41 VRB6      30.33F
FLORENCE       SUNNY     77  52  41 CALM      30.35F
MYRTLE BEACH   NOT AVBL
N MYRTLE BEACH MOSUNNY   75  54  47 SE10      30.35F

$$

GAZ063-065-086>088-099>101-113>116-118-119-134>141-150-051700-
...SOUTHEAST GEORGIA...

CITY           SKY/WX    TMP DP  RH WIND       PRES   REMARKS
SAVANNAH ARPT  PTSUNNY   75  55  49 NE13      30.32R
HUNTER AAF     MOSUNNY   76  58  53 E10       30.29S
FORT STEWART   PTSUNNY   76  57  52 E10       30.29R
STATESBORO       N/A     76  57  51 E6        30.32S
SYLVANIA       SUNNY     76  58  52 E8        30.33S
CLAXTON        FAIR      77  59  53 E8        30.31S

...CSRA...CENTRAL AND FAR SOUTHEAST GEORGIA...

CITY           SKY/WX    TMP DP  RH WIND       PRES   REMARKS
THOMSON        SUNNY     77  57  49 NE5       30.38F
AUGUSTA-BUSH   SUNNY     77  54  44 E9        30.32F
AUGUSTA-DANIEL SUNNY     77  51  40 NE10      30.34F
SWAINSBORO     FAIR      79  39  24 SE8G17    30.32
VIDALIA        PTSUNNY   73  59  60 E12G20    30.31S
EASTMAN        FAIR      77  57  49 E13       30.33S
HAZLEHURST     PTSUNNY   77  58  52 E7        30.29S
ALMA           MOSUNNY   76  57  51 NE9       30.29S
WAYCROSS       MOSUNNY   81  62  50 SE14G23   30.28S
JESUP          PTSUNNY   79  61  53 E12G18    30.29S
BAXLEY         PTSUNNY   79  55  44 E9        30.29S
BRUNSWICK      CLOUDY    79  55  44 NE14G22   30.30S
SAINT SIMONS   PTSUNNY   76  60  57 NE12G23   30.30R

$$

SCZ027-028-034-036>038-045-046-048>050-GAZ119-141-051700-
...LAKE AND SUPPLEMENTAL COASTAL OBSERVATIONS...

STATION/POSITION TIME  TEMP    WIND        PRES    WAVE   SWELL
                       AIR SEA DIR/SP/G            HT/PER HT/PER/DIR
                 (UTC) (F)     (DEG/KT/KT) (MB)    (FT/S) (FT/S/D)
UPR LAKE MARION  NOT AVBL
WINYAH BAY       1445   71      60/  8     1027.0
LAKE MURRAY      1500   72      CALM  /  2 1027.1F
ACE BASIN NERRS  NOT AVBL
FORT PULASKI     1500   72 71   50/ 14/ 17 1027.0R
SAPELO ISLAND    1500   76      60/ 12     1026.0R

$$

ANZ835-935-AMZ111-154-330-350-352-354-370-450-454-472-051700-
...C-MAN AND BUOY OBSERVATIONS...

STATION/POSITION TIME  TEMP    WIND        PRES    WAVE   SWELL
                       AIR SEA DIR/SP/G            HT/PER HT/PER/DIR
                 (UTC) (F)     (DEG/KT/KT) (MB)    (FT/S) (FT/S/D)
BUOY 41004       1550   72 73   50/ 12/ 16 1026.6R   3/ 7   2/ 7
BUOY 41008       1550   71 70   60/ 14/ 16 1026.0R   4/ 7   2/110/ 7
FOLLY BEACH CMAN 1600   72      60/ 13/ 14 1027.4R
CAPERS NEARSHORE 1508   71      60/ 14/ 17 1027.4R
FRIPP NEARSHORE  1500   71      60/ 14/ 17 1026.0R


STATION/POSITION TIME  TEMP    WIND        PRES    WAVE   SWELL
                       AIR SEA DIR/SP/G            HT/PER HT/PER/DIR
                 (UTC) (F)     (DEG/KT/KT) (MB)    (FT/S) (FT/S/D)
5E ST. MARYS GA  1521      72                N/A     4/ 7   2/ 80/13
FRYING PAN BUOY  1550   72 72   90/ 10/ 12 1028.6R   3/ 6   3/130/ 6
BUOY 41025       1550   73 77  170/ 10/ 12 1029.0S   3/ 8   3/ 60/ 8
CAPE LOOKOUT NC  1500   71     110/  2/  2 1028.4R
BUOY 41002       1550   69 70  100/ 17/ 21 1027.0F   5/ 6   2/ 60/ 9
BUOY 41010       1520   75 78   70/ 17/ 21 1022.2F
ST AUGUSTINE FL  1600   73 72   80/  8/  9 1024.8S


$$



USA.gov is the U.S. government's official web portal to all federal, state and local government web resources and services.